SP3VBV-2 Weather Reports


time (UTC)temp
F
wind
direction
speed
knots
gust
knots
rain 1hr
in
rain 24hr
in
rain mn
in
humidity
%
barometer
mb
20260905164918 66 0.0 0.0 0.00 0.00 0.00 51 1016.2
20260905163918 66 0.0 0.0 0.00 0.00 0.00 50 1016.0
20260905162918 66 0.0 0.0 0.00 0.00 0.00 51 1015.9
20260905161920 66 0.0 0.0 0.00 0.00 0.00 51 1015.8
20260905155918 66 0.0 0.0 0.00 0.00 0.00 51 1015.6
20260905154918 67 0.0 0.0 0.00 0.00 0.00 50 1015.5
20260905153918 67 0.0 0.0 0.00 0.00 0.00 51 1015.5
20260905152918 67 0.0 0.0 0.00 0.00 0.00 49 1015.5
20260905151918 68 0.0 0.0 0.00 0.00 0.00 50 1015.4
20260905150918 67 0.0 0.0 0.00 0.00 0.00 50 1015.5
20260905145918 68 0.0 0.0 0.00 0.00 0.00 49 1015.3
20260905144918 67 0.0 0.0 0.00 0.00 0.00 52 1015.4
20260905143918 68 0.0 0.0 0.00 0.00 0.00 53 1015.3
20260905142918 67 0.0 0.0 0.00 0.00 0.00 53 1015.3
20260905141918 67 0.0 0.0 0.00 0.00 0.00 51 1015.5
20260905140918 68 0.0 0.0 0.00 0.00 0.00 50 1015.5
20260905135918 69 0.0 0.0 0.00 0.00 0.00 51 1015.5
20260905134918 69 0.0 0.0 0.00 0.00 0.00 51 1015.4
20260905133918 69 0.0 0.0 0.00 0.00 0.00 53 1015.4
20260905132918 68 0.0 0.0 0.00 0.00 0.00 52 1015.5
20260905131918 69 0.0 0.0 0.00 0.00 0.00 50 1015.3
20260905130918 68 0.0 0.0 0.00 0.00 0.00 52 1015.5
20260905125918 66 0.0 0.0 0.00 0.00 0.00 57 1015.7
20260905124918 67 0.0 0.0 0.00 0.00 0.00 55 1015.5
20260905123918 66 0.0 0.0 0.00 0.00 0.00 51 1015.8
20260905122918 67 0.0 0.0 0.00 0.00 0.00 57 1015.8
20260905121918 67 0.0 0.0 0.00 0.00 0.00 58 1015.9
20260905120918 66 0.0 0.0 0.00 0.00 0.00 59 1015.9
20260905115918 67 0.0 0.0 0.00 0.00 0.00 57 1016.0
20260905114918 66 0.0 0.0 0.00 0.00 0.00 58 1015.9
20260905113918 67 0.0 0.0 0.00 0.00 0.00 57 1015.9
20260905112918 67 0.0 0.0 0.00 0.00 0.00 59 1016.0
20260905111918 66 0.0 0.0 0.00 0.00 0.00 59 1015.9
20260905110918 67 0.0 0.0 0.00 0.00 0.00 58 1015.8
20260905105918 66 0.0 0.0 0.00 0.00 0.00 60 1015.6
20260905104918 66 0.0 0.0 0.00 0.00 0.00 59 1015.8
20260905103918 66 0.0 0.0 0.00 0.00 0.00 59 1015.7
20260905102918 66 0.0 0.0 0.00 0.00 0.00 62 1015.7
20260905101919 65 0.0 0.0 0.00 0.00 0.00 65 1015.6
20260905095917 66 0.0 0.0 0.00 0.00 0.00 62 1015.5
20260905094917 65 0.0 0.0 0.00 0.00 0.00 64 1015.7
20260905093917 65 0.0 0.0 0.00 0.00 0.00 67 1015.6
20260905092917 65 0.0 0.0 0.00 0.00 0.00 68 1015.6
20260905091917 64 0.0 0.0 0.00 0.00 0.00 70 1015.6
20260905090917 64 0.0 0.0 0.00 0.00 0.00 73 1015.5
20260905085917 64 0.0 0.0 0.00 0.00 0.00 74 1015.5
20260905084917 64 0.0 0.0 0.00 0.00 0.00 80 1015.4
20260905083917 63 0.0 0.0 0.00 0.00 0.00 81 1015.2
20260905082917 63 0.0 0.0 0.00 0.00 0.00 87 1015.2
20260905081917 63 0.0 0.0 0.00 0.00 0.00 92 1015.2
20260905080917 63 0.0 0.0 0.00 0.00 0.00 97 1015.1
20260905075917 62 0.0 0.0 0.00 0.00 0.00 99 1015.0
20260905074917 62 0.0 0.0 0.00 0.00 0.00 10 1014.9
20260905073917 61 0.0 0.0 0.00 0.00 0.00 10 1014.9
20260905072917 61 0.0 0.0 0.00 0.00 0.00 10 1014.9
20260905071917 61 0.0 0.0 0.00 0.00 0.00 10 1014.9
20260905070917 61 0.0 0.0 0.00 0.00 0.00 10 1014.7
20260905065917 60 0.0 0.0 0.00 0.00 0.00 10 1014.6
20260905064917 60 0.0 0.0 0.00 0.00 0.00 10 1014.5
20260905063917 60 0.0 0.0 0.00 0.00 0.00 10 1014.3
20260905062917 59 0.0 0.0 0.00 0.00 0.00 10 1014.2
20260905061917 59 0.0 0.0 0.00 0.00 0.00 10 1014.1
20260905060917 59 0.0 0.0 0.00 0.00 0.00 10 1014.0
20260905055917 59 0.0 0.0 0.00 0.00 0.00 10 1014.1
20260905054917 59 0.0 0.0 0.00 0.00 0.00 10 1014.0
20260905053917 59 0.0 0.0 0.00 0.00 0.00 10 1013.8
20260905052917 59 0.0 0.0 0.00 0.00 0.00 10 1013.8
20260905051917 59 0.0 0.0 0.00 0.00 0.00 10 1013.7
20260905050917 59 0.0 0.0 0.00 0.00 0.00 10 1013.4
20260905045917 59 0.0 0.0 0.00 0.00 0.00 10 1013.3
20260905044917 59 0.0 0.0 0.00 0.00 0.00 10 1013.3
20260905043917 59 0.0 0.0 0.00 0.00 0.00 10 1013.2
20260905042917 59 0.0 0.0 0.00 0.00 0.00 10 1013.1
20260905041917 59 0.0 0.0 0.00 0.00 0.00 10 1012.9
20260905035917 59 0.0 0.0 0.00 0.00 0.00 10 1012.9
20260905034916 59 0.0 0.0 0.00 0.00 0.00 10 1012.7
20260905033916 59 0.0 0.0 0.00 0.00 0.00 10 1012.3
20260905032916 59 0.0 0.0 0.00 0.00 0.00 10 1012.4
20260905031916 59 0.0 0.0 0.00 0.00 0.00 10 1012.4
20260905030916 59 0.0 0.0 0.00 0.00 0.00 10 1012.1
20260905025916 59 0.0 0.0 0.00 0.00 0.00 10 1012.0
20260905024916 59 0.0 0.0 0.00 0.00 0.00 10 1011.9
20260905023916 59 0.0 0.0 0.00 0.00 0.00 10 1011.5
20260905022916 59 0.0 0.0 0.00 0.00 0.00 10 1011.7
20260905021916 59 0.0 0.0 0.00 0.00 0.00 10 1011.8
20260905020916 59 0.0 0.0 0.00 0.00 0.00 10 1011.8
20260905015916 59 0.0 0.0 0.00 0.00 0.00 10 1011.6
20260905014916 59 0.0 0.0 0.00 0.00 0.00 10 1011.1
20260905013916 59 0.0 0.0 0.00 0.00 0.00 10 1010.5
20260905012916 60 0.0 0.0 0.00 0.00 0.00 10 1011.5
20260905011916 60 0.0 0.0 0.00 0.00 0.00 10 1011.5
20260905010916 60 0.0 0.0 0.00 0.00 0.00 10 1011.5
20260905005916 60 0.0 0.0 0.00 0.00 0.00 10 1011.4
20260905004916 60 0.0 0.0 0.00 0.00 0.00 10 1011.2
20260905003917 60 0.0 0.0 0.00 0.00 0.00 10 1010.9
20260905002916 60 0.0 0.0 0.00 0.00 0.00 10 1010.8
20260905001916 60 0.0 0.0 0.00 0.00 0.00 10 1011.3
20260905000916 60 0.0 0.0 0.00 0.00 0.00 10 1011.0
20260904235916 60 0.0 0.0 0.00 0.00 0.00 10 1010.6
20260904234916 60 0.0 0.0 0.00 0.00 0.00 10 1010.6
20260904233916 60 0.0 0.0 0.00 0.00 0.00 10 1010.8
20260904232916 60 0.0 0.0 0.00 0.00 0.00 10 1010.1
20260904231916 60 0.0 0.0 0.00 0.00 0.00 10 1010.0
20260904230916 60 0.0 0.0 0.00 0.00 0.00 10 1010.0
20260904225916 60 0.0 0.0 0.00 0.00 0.00 10 1010.2
20260904224916 60 0.0 0.0 0.00 0.00 0.00 10 1009.8
20260904223916 60 0.0 0.0 0.00 0.00 0.00 10 1009.5
20260904222917 60 0.0 0.0 0.00 0.00 0.00 10 1009.9
20260904221916 60 0.0 0.0 0.00 0.00 0.00 10 1009.7
20260904215915 60 0.0 0.0 0.00 0.00 0.00 10 1009.1
20260904214915 61 0.0 0.0 0.00 0.00 0.00 10 1009.3
20260904213915 62 0.0 0.0 0.00 0.00 0.00 10 1009.5
20260904212915 63 0.0 0.0 0.00 0.00 0.00 10 1009.6
20260904211915 63 0.0 0.0 0.00 0.00 0.00 10 1009.5
20260904210915 63 0.0 0.0 0.00 0.00 0.00 10 1009.2
20260904205915 63 0.0 0.0 0.00 0.00 0.00 10 1009.0
20260904204915 63 0.0 0.0 0.00 0.00 0.00 10 1009.1
20260904203915 63 0.0 0.0 0.00 0.00 0.00 10 1009.0
20260904202915 64 0.0 0.0 0.00 0.00 0.00 10 1009.2
20260904201915 65 0.0 0.0 0.00 0.00 0.00 10 1009.3
20260904200915 68 0.0 0.0 0.00 0.00 0.00 87 1008.0
20260904195915 69 0.0 0.0 0.00 0.00 0.00 90 1008.1
20260904194915 70 0.0 0.0 0.00 0.00 0.00 97 1008.1
20260904193915 72 0.0 0.0 0.00 0.00 0.00 81 1007.7
20260904192915 74 0.0 0.0 0.00 0.00 0.00 68 1007.2
20260904191915 74 0.0 0.0 0.00 0.00 0.00 63 1006.6
20260904190915 74 0.0 0.0 0.00 0.00 0.00 64 1006.3
20260904185915 74 0.0 0.0 0.00 0.00 0.00 65 1006.3
20260904184915 74 0.0 0.0 0.00 0.00 0.00 65 1006.3
20260904183915 73 0.0 0.0 0.00 0.00 0.00 66 1006.2
20260904182915 74 0.0 0.0 0.00 0.00 0.00 66 1006.2
20260904181915 74 0.0 0.0 0.00 0.00 0.00 66 1006.3
20260904180915 74 0.0 0.0 0.00 0.00 0.00 66 1006.4
20260904175915 74 0.0 0.0 0.00 0.00 0.00 65 1006.7
20260904174915 74 0.0 0.0 0.00 0.00 0.00 65 1006.8
20260904173915 74 0.0 0.0 0.00 0.00 0.00 64 1007.1
20260904172915 75 0.0 0.0 0.00 0.00 0.00 65 1007.2
20260904171915 74 0.0 0.0 0.00 0.00 0.00 66 1007.2
20260904170915 74 0.0 0.0 0.00 0.00 0.00 65 1007.3
20260904165915 74 0.0 0.0 0.00 0.00 0.00 65 1007.5